Atqasuk Edward Burnell Sr Mem, AK

2:03 AM AKST on December 10, 2019 (GMT -0900)
Atqasuk Edward Burnell Sr Mem

Weather History for PATQ - November, 2019

Change the Weather History Date:

Thursday, November 21, 2019

  Actual Average (WUND) Record (WUND)
Temperature  
Mean Temperature 8 °F -  
Max Temperature 10 °F - - (-1)
Min Temperature 5 °F - - (-1)
Degree Days  
Heating Degree Days 58    
Moisture  
Dew Point 6 °F    
Average Humidity 89    
Maximum Humidity 92    
Minimum Humidity 83    
Precipitation  
Precipitation 0.00 in - - ()
Sea Level Pressure  
Sea Level Pressure 29.35 in    
Wind  
Wind Speed 13 mph ()    
Max Wind Speed 21 mph    
Max Gust Speed -    
Visibility 3.6 miles    
Events Fog , Snow    
Averages and records for this station are not official NWS values.
T = Trace of Precipitation, MM = Missing Value Source: Averaged Metar Reports

Daily Weather History Graph

Daily Weather History Graph

Search for Another Location

Airport or City:

Astronomy

Nov. 21, 2019 Rise Set
Actual Time 12:28 PM AKST 2:01 PM AKST
Civil Twilight 10:10 AM AKST 4:19 PM AKST
Nautical Twilight 8:40 AM AKST 5:49 PM AKST
Astronomical Twilight 7:24 AM AKST 7:05 PM AKST
Moon 1:14 AM AKST (11/21) 4:27 PM AKST (11/21)
Length of Visible Light 6h 08m
Length of Day
1h 32m
Waning Crescent, 28% of the Moon is Illuminated
Nov 21
Waning Crescent
Nov 26
New
Dec 3
First Quarter
Dec 11
Full
Dec 18
Last Quarter

Hourly Weather History & Observations

Time (AKST) Temp. Windchill Dew Point Humidity Pressure Visibility Wind Dir Wind Speed Gust Speed Precip Events Conditions
12:04 AM 5.0 °F -8.1 °F 3.2 °F 92% 29.48 in 9.0 mi NNE 8.1 mph - 0.00 in Snow Light Snow
12:56 AM 7.0 °F -7.5 °F 3.9 °F 87% 29.49 in 9.0 mi NE 10.4 mph - 0.00 in Snow Light Snow
1:56 AM 7.0 °F -7.5 °F 3.0 °F 84% 29.48 in 9.0 mi NE 10.4 mph - 0.00 in Snow Light Snow
2:56 AM 7.0 °F -7.5 °F 3.9 °F 87% 29.46 in 9.0 mi ENE 10.4 mph - 0.00 in Snow Light Snow
3:56 AM 8.1 °F -5.3 °F 3.9 °F 83% 29.44 in 9.0 mi NNE 9.2 mph - 0.00 in Snow Light Snow
5:48 AM 8.6 °F -9.5 °F 6.8 °F 92% 29.39 in 1.8 mi NE 17.3 mph - 0.00 in Snow Light Snow
6:34 AM 8.6 °F -8.9 °F 6.8 °F 92% 29.38 in 2.0 mi NE 16.1 mph - 0.00 in Snow Light Snow
6:46 AM 8.6 °F -8.3 °F 6.8 °F 92% 29.38 in 4.0 mi NE 15.0 mph - 0.00 in Snow Light Snow
7:05 AM 8.6 °F -9.5 °F 6.8 °F 92% 29.38 in 2.0 mi NNE 17.3 mph - 0.00 in Snow Light Snow
7:45 AM 8.6 °F -7.7 °F 6.8 °F 92% 29.37 in 1.5 mi ENE 13.8 mph - 0.00 in Snow Light Snow
7:54 AM 8.6 °F -7.7 °F 6.8 °F 92% 29.37 in 3.0 mi ENE 13.8 mph - 0.00 in Snow Light Snow
7:56 AM 9.0 °F -6.6 °F 6.1 °F 88% 29.39 in 3.0 mi ENE 12.7 mph - 0.00 in Snow Light Snow
8:15 AM 8.6 °F -8.3 °F 5.0 °F 85% 29.36 in 2.5 mi ENE 15.0 mph - 0.00 in Snow Light Snow
8:25 AM 8.6 °F -6.3 °F 5.0 °F 85% 29.36 in 5.0 mi ENE 11.5 mph - 0.00 in Snow Light Snow
8:34 AM 8.6 °F -6.3 °F 5.0 °F 85% 29.36 in 5.0 mi ENE 11.5 mph - 0.00 in Snow Light Snow
9:40 AM 6.8 °F -5.9 °F 5.0 °F 92% 29.36 in 2.5 mi NNE 8.1 mph - 0.00 in Snow Light Snow
9:53 AM 8.6 °F -4.7 °F 5.0 °F 85% 29.36 in 3.0 mi NE 9.2 mph - 0.00 in Snow Light Snow
9:56 AM 8.1 °F -5.3 °F 5.0 °F 87% 29.38 in 3.0 mi NE 9.2 mph - 0.00 in Snow Light Snow
10:35 AM 8.6 °F -10.0 °F 6.8 °F 92% 29.35 in 2.0 mi NE 18.4 mph - 0.00 in Snow Light Snow
10:56 AM 8.1 °F -9.0 °F 5.0 °F 87% 29.37 in 3.0 mi ENE 15.0 mph - 0.00 in Snow Light Snow
11:34 AM 8.6 °F -6.3 °F 5.0 °F 85% 29.35 in 2.0 mi ENE 11.5 mph - 0.00 in Snow Light Snow
11:56 AM 8.1 °F -7.0 °F 5.0 °F 87% 29.37 in 5.0 mi ENE 11.5 mph - 0.00 in Snow Light Snow
12:56 PM 8.1 °F -7.0 °F 5.0 °F 87% 29.36 in 4.0 mi NE 11.5 mph - 0.00 in Snow Light Snow
1:06 PM 8.6 °F -7.7 °F 6.8 °F 92% 29.33 in 2.5 mi NE 13.8 mph - 0.00 in Snow Light Snow
1:22 PM 8.6 °F -11.0 °F 6.8 °F 92% 29.33 in 1.2 mi ENE 20.7 mph - 0.00 in Snow Light Snow
1:43 PM 10.4 °F -8.2 °F 6.8 °F 85% 29.33 in 0.8 mi ENE 19.6 mph - 0.00 in Snow Light Snow
2:12 PM 10.4 °F -8.2 °F 6.8 °F 85% 29.33 in 0.8 mi ENE 19.6 mph - 0.00 in Snow Light Snow
2:25 PM 10.4 °F -7.7 °F 6.8 °F 85% 29.32 in 0.5 mi ENE 18.4 mph - 0.00 in Fog , Snow Light Snow
2:33 PM 10.4 °F -7.7 °F 6.8 °F 85% 29.32 in 1.0 mi ENE 18.4 mph - 0.00 in Snow Light Snow
2:51 PM 10.4 °F -7.2 °F 6.8 °F 85% 29.32 in 0.8 mi ENE 17.3 mph - N/A Snow Light Snow
2:56 PM 10.0 °F -7.6 °F 7.0 °F 87% 29.34 in 0.8 mi ENE 17.3 mph - 0.00 in Snow Light Snow
3:21 PM 10.4 °F -7.2 °F 6.8 °F 85% 29.31 in 0.5 mi ENE 17.3 mph - 0.00 in Fog , Snow Snow
3:41 PM 8.6 °F -9.5 °F 6.8 °F 92% 29.31 in 0.8 mi ENE 17.3 mph - 0.00 in Snow Light Snow
3:56 PM 9.0 °F -9.0 °F 7.0 °F 92% 29.32 in 1.5 mi ENE 17.3 mph - 0.00 in Snow Light Snow
4:21 PM 8.6 °F -10.5 °F 6.8 °F 92% 29.30 in 0.8 mi ENE 19.6 mph - 0.00 in Snow Light Snow
4:56 PM 10.0 °F -9.1 °F 7.0 °F 87% 29.32 in 1.2 mi NE 20.7 mph - 0.00 in Snow Light Snow
5:56 PM 9.0 °F -10.0 °F 6.1 °F 88% 29.31 in 3.0 mi ENE 19.6 mph - 0.00 in Snow Light Snow
6:07 PM 8.6 °F -10.5 °F 6.8 °F 92% 29.29 in 5.0 mi ENE 19.6 mph - 0.00 in Snow Light Snow
6:56 PM 9.0 °F -10.5 °F 6.1 °F 88% 29.30 in 4.0 mi NE 20.7 mph - 0.00 in Snow Light Snow
7:56 PM 9.0 °F -10.0 °F 6.1 °F 88% 29.30 in 5.0 mi NE 19.6 mph - 0.00 in Snow Light Snow
9:04 PM 8.6 °F -10.0 °F 6.8 °F 92% 29.28 in 5.0 mi ENE 18.4 mph - 0.00 in Snow Light Snow
9:38 PM 8.6 °F -8.9 °F 6.8 °F 92% 29.28 in 7.0 mi ENE 16.1 mph - 0.00 in Snow Light Snow
9:56 PM 9.0 °F -9.0 °F 6.1 °F 88% 29.29 in 9.0 mi ENE 17.3 mph - 0.00 in Snow Light Snow
10:16 PM 8.6 °F -8.3 °F 6.8 °F 92% 29.27 in 4.0 mi ENE 15.0 mph - 0.00 in Snow Light Snow
10:46 PM 8.6 °F -8.9 °F 6.8 °F 92% 29.26 in 6.0 mi NE 16.1 mph - 0.00 in Snow Light Snow
10:56 PM 9.0 °F -9.5 °F 6.1 °F 88% 29.29 in 5.0 mi NE 18.4 mph - 0.00 in Snow Light Snow
11:46 PM 8.6 °F -10.0 °F 6.8 °F 92% 29.26 in 4.0 mi ENE 18.4 mph - 0.00 in Snow Light Snow